#timestamp,LO_Frequency,Hit,StdDev 
1551384015.8,286047002.0,N
1551384035.6,286047002.2,N
1551384055.5,286047000.2,N
1551384075.3,286047000.8,N
1551384095.1,286046998.9,N
1551384115.9,286046998.5,N
1551384135.7,286046999.4,N
1551384155.5,286046998.3,N
1551384175.4,286046999.2,N
1551384195.2,286046998.9,N
1551384215.1,286046996.9,N
1551384216.0,286046996.9,N
1551384235.8,286046998.9,N
1551384255.6,286046998.8,N
1551384275.5,286047001.2,N
1551384295.3,286047001.0,N
1551384315.2,286047002.8,N
1551384335.9,286047002.7,N
1551384355.7,286047001.5,N
1551384375.6,286047002.1,N
1551384395.4,286047002.2,N
1551384415.2,286047002.1,N
1551384435.1,286047001.9,N
1551384436.0,286047001.9,N
1551384455.8,286047002.4,N
1551384475.7,286047002.6,N
1551384495.5,286047002.4,N
1551384515.3,286047000.3,N
1551384535.2,286047002.3,N
1551384555.0,286047002.4,N
1551384555.9,286047002.4,N
1551384575.7,286047002.4,N
1551384595.6,286047001.4,N
1551384615.4,286047001.7,N
1551384635.3,286047003.8,N
1551384655.1,286047003.1,N
1551384656.0,286047003.1,N
1551384675.8,286047007.1,Y
1551384695.7,286047007.1,P
1551384715.5,286047005.9,N
1551384735.4,286047002.9,N
1551384755.2,286047006.0,N
1551384775.0,286047005.3,N
1551384775.9,286047005.3,N
1551384795.8,286047003.0,N
1551384815.6,286047002.0,N
1551384835.4,286047001.9,N
1551384855.3,286047002.1,N
1551384875.1,286047002.8,N
1551384895.9,286047002.6,N
1551384915.7,286047002.6,N
1551384935.5,286047003.8,N
1551384955.4,286047003.4,N
1551384975.2,286047003.1,N
1551384995.0,286047001.6,N
1551384995.9,286047001.6,N
1551385015.8,286046999.7,N
1551385035.6,286047000.1,N
1551385055.5,286047002.7,N
1551385075.3,286047001.9,N
1551385095.1,286047001.7,N
1551385115.9,286047005.3,N
1551385135.7,286047003.4,N
1551385155.6,286047002.9,N
1551385175.4,286047004.1,N
1551385195.2,286047001.7,N
1551385215.1,286047000.3,N
1551385216.0,286047000.3,N
1551385235.8,286047002.5,N
1551385255.6,286047002.1,N
1551385275.5,286047001.7,N
1551385295.3,286047001.9,N
1551385315.2,286047003.5,N
1551385335.9,286047003.7,N
1551385355.7,286047001.7,N
1551385375.6,286047001.3,N
1551385395.4,286047003.2,N
1551385415.2,286047004.8,Y
1551385435.1,286047005.9,P
1551385436.0,286047005.9,P
1551385455.8,286047003.4,N
1551385475.7,286047003.4,N
1551385495.5,286047003.6,N
1551385515.3,286047001.3,N
1551385535.2,286047002.9,N
1551385555.0,286047003.5,N
1551385555.9,286047003.5,N
1551385575.7,286047003.5,N
1551385595.6,286047004.7,Y
1551385615.4,286047000.3,P
1551385635.3,286046999.8,N
1551385655.1,286047000.6,N
1551385656.0,286047000.6,N
1551385675.8,286047002.6,N
1551385695.7,286047000.6,N
1551385715.5,286046996.8,N
1551385735.3,286046998.8,N
1551385755.2,286046998.7,N
1551385775.0,286046998.2,N
1551385775.9,286046998.2,N
1551385795.8,286046998.4,N
1551385815.6,286046998.4,N
1551385835.4,286047001.0,N
1551385855.3,286047002.0,N
1551385875.1,286047000.0,N
1551385895.8,286046999.7,N
1551385915.7,286047002.2,N
1551385935.5,286046999.0,N
1551385955.4,286047000.4,N
1551385975.2,286046998.2,N
1551385995.0,286046998.1,N
1551385995.9,286046998.1,N
1551386015.8,286047000.8,N
1551386035.6,286047001.0,N
1551386055.4,286047001.0,N
1551386075.3,286047003.9,N
1551386095.1,286047002.2,N
1551386115.9,286047004.3,N
1551386135.7,286047002.3,N
1551386155.5,286047000.2,N
1551386175.4,286046998.5,N
1551386195.2,286047000.5,N
1551386215.0,286046999.0,N
1551386216.0,286046999.0,N
1551386235.8,286046998.0,N
1551386255.6,286046997.0,N
1551386275.5,286046999.3,N
1551386295.3,286046999.3,N
1551386315.1,286046998.6,N
1551386335.9,286047000.9,N
1551386355.7,286046998.2,N
1551386375.5,286047000.3,N
1551386395.4,286046997.0,N
1551386415.2,286046997.9,N
1551386435.1,286046999.0,N
1551386436.0,286046999.0,N
1551386455.8,286047001.1,N
1551386475.6,286047000.8,N
1551386495.5,286046999.9,N
1551386515.3,286047000.1,N
1551386535.2,286046998.2,N
1551386555.0,286047000.7,N
1551386555.9,286047000.7,N
1551386575.8,286047000.5,N
1551386595.6,286047002.8,N
1551386615.4,286047001.9,N
1551386635.3,286047002.5,N
1551386655.1,286047002.1,N
1551386675.8,286047002.8,N
1551386695.7,286047001.2,N
1551386715.5,286047000.8,N
1551386735.4,286046999.8,N
1551386755.2,286047002.2,N
1551386775.0,286046999.7,N
1551386775.9,286046999.7,N
1551386795.8,286047000.0,N
1551386815.6,286047000.1,N
1551386835.5,286047002.8,N
1551386855.3,286047002.4,N
1551386875.1,286046999.8,N
1551386895.9,286047000.5,N
1551386915.7,286047000.7,N
1551386935.5,286046998.1,N
1551386955.4,286047000.0,N
1551386975.2,286046998.4,N
1551386995.1,286046998.1,N
1551386996.0,286046998.1,N
1551387015.8,286046999.6,N
1551387035.6,286047000.0,N
1551387055.5,286046998.3,N
1551387075.3,286046997.1,N
1551387095.2,286046995.0,Y
1551387115.9,286046997.8,P
1551387135.7,286046999.1,N
1551387155.6,286046999.0,N
1551387175.4,286047001.1,N
1551387195.2,286046998.1,N
1551387245.1,286046999.0,E
1551387255.0,286046999.5,N
1551387255.9,286046999.5,P
1551387275.8,286046999.1,P
1551387295.6,286046998.8,Y
1551387315.5,286046998.1,P
1551387335.3,286047000.0,N
1551387355.1,286047001.9,N
1551387375.9,286047002.1,N
1551387395.7,286047001.4,N
1551387415.5,286047002.3,N
1551387435.4,286047002.1,N
1551387455.2,286047004.3,N
1551387475.1,286046999.8,N
1551387476.0,286046999.8,N
1551387495.8,286047001.7,N
1551387515.6,286047003.8,N
1551387535.5,286047002.0,N
1551387555.3,286046999.8,N
1551387575.1,286047000.3,N
1551387595.9,286046998.7,N
